EN

Hourly Weather Mayrhofen

Today, 4 December, Friday

Time Temperature Precipitation Wind Pressure Humidity
00:00 -8°C° 0 mm 4 mps 603 mmHg 84%
01:00 -8°C° 0 mm 4 mps 603 mmHg 82%
02:00 -8°C° 0 mm 4 mps 602 mmHg 82%
03:00 -8°C° 0 mm 4 mps 602 mmHg 82%
04:00 -8°C° 0 mm 4 mps 601 mmHg 82%
05:00 -8°C° 0 mm 4 mps 601 mmHg 81%
06:00 -8°C° 0 mm 4 mps 601 mmHg 81%
07:00 -8°C° 0 mm 4 mps 601 mmHg 80%
08:00 -8°C° 0.1 mm 4 mps 601 mmHg 78%
09:00 -7°C° 0.1 mm 4 mps 601 mmHg 76%
10:00 -7°C° 0.1 mm 4 mps 601 mmHg 74%
11:00 -6°C° 0.1 mm 5 mps 601 mmHg 74%
12:00 -6°C° 0.1 mm 5 mps 601 mmHg 73%
13:00 -5°C° 0.1 mm 5 mps 601 mmHg 72%
14:00 -6°C° 0.1 mm 5 mps 600 mmHg 74%
15:00 -5°C° 0.1 mm 4 mps 600 mmHg 77%
16:00 -5°C° 0.1 mm 4 mps 599 mmHg 80%
17:00 -7°C° 0.7 mm 4 mps 599 mmHg 83%
18:00 -7°C° 0.7 mm 4 mps 599 mmHg 85%
19:00 -6°C° 0.7 mm 3 mps 599 mmHg 88%
20:00 -6°C° 1.6 mm 3 mps 599 mmHg 89%
21:00 -6°C° 1.6 mm 3 mps 599 mmHg 91%
22:00 -6°C° 1.6 mm 3 mps 599 mmHg 92%
23:00 -6°C° 2.4 mm 3 mps 599 mmHg 93%

Tomorrow, 5 December, Saturday

Time Temperature Precipitation Wind Pressure Humidity
00:00 -5°C° 2.4 mm 3 mps 599 mmHg 93%
01:00 -5°C° 2.4 mm 3 mps 599 mmHg 94%
02:00 -5°C° 2.1 mm 3 mps 599 mmHg 94%
03:00 -5°C° 2.1 mm 3 mps 599 mmHg 95%
04:00 -4°C° 2.1 mm 2 mps 599 mmHg 95%
05:00 -5°C° 2.2 mm 3 mps 600 mmHg 95%
06:00 -5°C° 2.2 mm 3 mps 600 mmHg 95%
07:00 -4°C° 2.2 mm 3 mps 601 mmHg 95%
08:00 -3°C° 2.7 mm 2 mps 601 mmHg 96%
09:00 -3°C° 2.7 mm 2 mps 602 mmHg 96%
10:00 -2°C° 2.7 mm 2 mps 602 mmHg 96%
11:00 -2°C° 3.2 mm 2 mps 602 mmHg 97%
12:00 -2°C° 3.2 mm 2 mps 602 mmHg 97%
13:00 -2°C° 3.2 mm 2 mps 603 mmHg 98%
14:00 -2°C° 3.4 mm 2 mps 603 mmHg 98%
15:00 -3°C° 3.4 mm 2 mps 603 mmHg 97%
16:00 -3°C° 3.4 mm 2 mps 603 mmHg 97%
17:00 -3°C° 2.8 mm 2 mps 603 mmHg 97%
18:00 -2°C° 2.8 mm 1 mps 603 mmHg 97%
19:00 -2°C° 2.8 mm 1 mps 603 mmHg 97%
20:00 -1°C° 2.4 mm 1 mps 603 mmHg 97%
21:00 -1°C° 2.4 mm 1 mps 604 mmHg 98%
22:00 -1°C° 2.4 mm 1 mps 604 mmHg 98%
23:00 -3°C° 3.3 mm 2 mps 604 mmHg 98%

Day after tomorrow, 6 December, Sunday

Time Temperature Precipitation Wind Pressure Humidity
00:00 -2°C° 3.3 mm 2 mps 604 mmHg 98%
01:00 -2°C° 3.3 mm 2 mps 604 mmHg 98%
02:00 -2°C° 2.9 mm 2 mps 604 mmHg 98%
03:00 -2°C° 2.9 mm 2 mps 603 mmHg 98%
04:00 -2°C° 2.9 mm 2 mps 603 mmHg 98%
05:00 -2°C° 1.9 mm 2 mps 603 mmHg 98%
06:00 -2°C° 1.9 mm 2 mps 603 mmHg 98%
07:00 -2°C° 1.9 mm 2 mps 603 mmHg 98%
08:00 -2°C° 1.8 mm 2 mps 603 mmHg 98%
09:00 0°C° 1.8 mm 1 mps 603 mmHg 98%
10:00 +1°C° 1.8 mm 1 mps 603 mmHg 99%
11:00 0°C° 4 mm 1 mps 602 mmHg 99%
12:00 0°C° 4 mm 1 mps 602 mmHg 99%
13:00 -2°C° 4 mm 2 mps 601 mmHg 99%
14:00 0°C° 3.6 mm 1 mps 601 mmHg 98%
15:00 0°C° 3.6 mm 1 mps 600 mmHg 98%
16:00 -1°C° 3.6 mm 1 mps 600 mmHg 98%
17:00 -1°C° 2.9 mm 1 mps 600 mmHg 98%
18:00 -1°C° 2.9 mm 1 mps 600 mmHg 98%
19:00 -1°C° 2.9 mm 1 mps 600 mmHg 98%
20:00 -1°C° 1.2 mm 1 mps 600 mmHg 98%
21:00 -1°C° 1.2 mm 1 mps 600 mmHg 98%
22:00 -2°C° 1.2 mm 1 mps 601 mmHg 98%
23:00 -2°C° 1.4 mm 1 mps 601 mmHg 97%

7 December, Monday

Time Temperature Precipitation Wind Pressure Humidity
00:00 -2°C° 1.4 mm 1 mps 601 mmHg 97%
01:00 -2°C° 1.4 mm 1 mps 601 mmHg 97%
02:00 -3°C° 1 mm 1 mps 601 mmHg 97%
03:00 -3°C° 1 mm 1 mps 601 mmHg 97%
04:00 -5°C° 1 mm 2 mps 602 mmHg 97%
05:00 -6°C° 0.5 mm 2 mps 602 mmHg 97%
06:00 -6°C° 0.5 mm 2 mps 602 mmHg 96%
07:00 -7°C° 0.5 mm 2 mps 603 mmHg 96%
08:00 -6°C° 0.1 mm 2 mps 603 mmHg 95%
09:00 -6°C° 0.1 mm 2 mps 604 mmHg 94%
10:00 -5°C° 0.1 mm 2 mps 605 mmHg 93%
11:00 -5°C° 0 mm 2 mps 605 mmHg 93%
12:00 -4°C° 0 mm 2 mps 605 mmHg 92%
13:00 -4°C° 0 mm 2 mps 605 mmHg 92%
14:00 -5°C° 0.1 mm 2 mps 605 mmHg 92%
15:00 -6°C° 0.1 mm 2 mps 605 mmHg 93%
16:00 -6°C° 0.1 mm 1 mps 605 mmHg 93%
17:00 -6°C° 0.1 mm 1 mps 605 mmHg 92%
18:00 -7°C° 0.1 mm 1 mps 605 mmHg 92%
19:00 -8°C° 0.1 mm 1 mps 605 mmHg 91%
20:00 -8°C° 0.1 mm 1 mps 605 mmHg 91%
21:00 -8°C° 0.1 mm 1 mps 605 mmHg 91%
22:00 -8°C° 0.1 mm 1 mps 605 mmHg 91%
23:00 -8°C° 0 mm 1 mps 605 mmHg 90%

8 December, Tuesday

Time Temperature Precipitation Wind Pressure Humidity
00:00 -8°C° 0 mm 1 mps 604 mmHg 90%
01:00 -8°C° 0 mm 1 mps 604 mmHg 90%
02:00 -9°C° 0 mm 2 mps 604 mmHg 90%
03:00 -9°C° 0 mm 2 mps 604 mmHg 90%
04:00 -9°C° 0 mm 2 mps 604 mmHg 90%
05:00 -9°C° 0 mm 2 mps 604 mmHg 90%
06:00 -9°C° 0 mm 2 mps 603 mmHg 90%
07:00 -10°C° 0 mm 2 mps 603 mmHg 90%
08:00 -9°C° 0 mm 2 mps 604 mmHg 91%
09:00 -8°C° 0 mm 2 mps 604 mmHg 91%
10:00 -7°C° 0 mm 2 mps 605 mmHg 92%
11:00 -7°C° 0 mm 3 mps 605 mmHg 91%
12:00 -7°C° 0 mm 3 mps 605 mmHg 91%
13:00 -6°C° 0 mm 3 mps 605 mmHg 91%
14:00 -7°C° 0 mm 3 mps 604 mmHg 91%
15:00 -7°C° 0 mm 2 mps 604 mmHg 91%
16:00 -8°C° 0 mm 2 mps 603 mmHg 91%
17:00 -9°C° 0 mm 2 mps 603 mmHg 91%
18:00 -10°C° 0 mm 2 mps 603 mmHg 90%
19:00 -12°C° 0 mm 2 mps 603 mmHg 90%
20:00 -12°C° 0 mm 2 mps 603 mmHg 90%
21:00 -12°C° 0 mm 2 mps 603 mmHg 90%
22:00 -13°C° 0 mm 2 mps 603 mmHg 90%
23:00 -13°C° 0 mm 2 mps 603 mmHg 89%

9 December, Wednesday

Time Temperature Precipitation Wind Pressure Humidity
00:00 -13°C° 0 mm 2 mps 603 mmHg 88%
01:00 -14°C° 0 mm 2 mps 602 mmHg 87%
02:00 -13°C° 0 mm 2 mps 602 mmHg 84%
03:00 -11°C° 0 mm 1 mps 602 mmHg 81%
04:00 -11°C° 0 mm 1 mps 602 mmHg 78%
05:00 -11°C° 0 mm 1 mps 602 mmHg 77%
06:00 -10°C° 0 mm 1 mps 602 mmHg 75%
07:00 -10°C° 0 mm 1 mps 601 mmHg 73%
08:00 -9°C° 0 mm 1 mps 602 mmHg 76%
09:00 -8°C° 0 mm 1 mps 603 mmHg 78%
10:00 -7°C° 0 mm 1 mps 603 mmHg 81%
11:00 -6°C° 0 mm 1 mps 603 mmHg 81%
12:00 -6°C° 0 mm 1 mps 603 mmHg 81%
13:00 -4°C° 0 mm 1 mps 604 mmHg 81%
14:00 -6°C° 0 mm 1 mps 603 mmHg 85%
15:00 -7°C° 0 mm 1 mps 603 mmHg 88%
16:00 -8°C° 0 mm 1 mps 602 mmHg 92%
17:00 -8°C° 0.1 mm 1 mps 602 mmHg 92%
18:00 -8°C° 0.1 mm 1 mps 603 mmHg 93%
19:00 -8°C° 0.1 mm 1 mps 603 mmHg 94%
20:00 -8°C° 0.3 mm 1 mps 603 mmHg 94%
21:00 -8°C° 0.3 mm 1 mps 603 mmHg 94%
22:00 -8°C° 0.3 mm 1 mps 604 mmHg 95%
23:00 -8°C° 0.2 mm 1 mps 604 mmHg 95%
Show more

We Need Your Consent

Meteoprog and our Service Providers may store and access personal data such as cookies, device identifiers or other similar technologies on your device and process such data to personalise content and ads, as well as provide social media features and to analyse the traffic.

  • Store and/or access information on your device

    Cookies, device identifiers or other information can be stored or accessed on your device for the purposes indicated above.

  • Personalised ads and content, ad and content measurement, audience insights, and products development

    Ads and content can be personalised based on a profile. More data can be added to better personalise ads and content. Ad and content performance can be measured. Insights about the audience who saw the ads and content can be derived. Such data can be used to develop or improve user’s experience, systems and software.

By clicking ‘I Agree’ you will allow the use of indicated cookies, device identifiers, web beacons or other similar technologies. Your settings can be changed in the browser on your device.

For certain purposes, legitimate interests may be relied on, rather than consent. You can read more about this in our Privacy and Cookie Policy.